Temperature
18 18 18 18 18 17 17 17 17 17 16 16 16 16 16 16 15 15 15 15 15 15 15 15 15 15 15 15 15 15 16 16 16 16 16 16 15 15 15 15 15 15 16
18 18 18 18 17 17 17 17 17 16 16 16 16 16 16 15 15 15 15 15 15 15 15 14 14 15 14 15 15 15 15 15 15 15 15 15 15 15 15 15 15 15 15
18 18 18 17 17 17 17 17 16 16 16 16 16 15 15 15 15 15 15 15 15 15 14 14 14 14 14 14 14 15 15 15 15 15 15 15 15 15 15 15 15 15 15
18 18 18 17 17 17 17 16 16 16 16 16 15 15 15 15 15 15 15 15 15 14 14 14 14 14 14 14 14 14 14 14 14 15 15 15 15 15 15 15 15 15 15
18 17 17 17 17 17 16 16 16 16 16 15 15 15 15 15 15 15 14 14 14 14 14 14 14 14 14 14 14 14 14 14 14 15 15 15 15 15 15 15 15 15 15
17 17 17 17 16 16 16 16 16 15 15 15 15 15 14 15 15 15 14 14 14 14 14 14 14 14 14 14 14 14 14 13 14 14 14 14 14 14 14 14 14 14 15
17 17 17 16 16 16 16 16 15 15 15 15 14 14 14 14 14 14 14 14 14 13 13 13 13 14 13 13 13 14 14 14 13 13 14 14 14 14 13 14 14 14 14
17 16 16 16 16 16 16 15 15 15 15 14 14 14 14 14 14 14 14 14 13 13 13 13 13 13 13 13 13 13 13 13 13 13 13 13 13 13 13 13 13 13 14
16 16 16 16 15 15 15 15 15 15 14 14 14 14 14 14 14 14 14 13 13 13 13 13 12 12 13 13 13 12 13 13 13 13 13 13 13 13 13 13 13 13 14
16 16 15 15 15 15 15 15 15 14 14 14 14 14 14 13 13 13 13 13 13 13 13 13 13 12 12 12 12 12 12 13 13 13 13 13 13 13 13 13 13 13 13
15 15 15 15 15 15 15 15 14 14 14 14 14 14 13 13 13 13 13 13 12 12 12 12 12 12 12 12 12 12 12 12 12 13 13 13 13 13 13 13 13 13 13
15 15 15 15 15 15 14 14 14 14 14 14 13 13 13 13 13 13 13 13 12 12 12 12 12 12 12 12 12 12 12 12 12 12 12 12 12 13 13 12 12 12 12
15 15 14 14 14 14 14 14 14 14 14 14 13 13 13 13 12 12 12 12 12 12 12 12 12 12 12 11 11 12 11 11 11 12 12 12 12 12 12 12 12 12 12
14 14 14 14 14 14 14 14 13 13 13 13 13 13 12 12 12 12 12 12 11 11 11 11 12 12 11 11 11 11 11 11 11 11 11 11 11 11 12 11 11 11 11
14 14 14 14 13 13 13 13 13 13 13 12 12 12 12 12 12 12 11 11 11 11 11 11 11 11 11 11 11 11 11 10 10 11 11 11 11 11 11 11 11 11 11
14 14 14 14 13 13 13 13 13 13 12 12 12 12 11 11 11 11 11 11 11 11 11 11 11 11 11 11 10 11 10 10 10 10 10 10 10 10 11 11 11 11 11
14 13 13 13 13 13 13 13 13 13 12 12 12 12 11 11 11 11 11 11 11 11 11 11 10 10 10 10 10 10 10 10 10 10 10 10 10 10 10 10 10 10 10
13 13 13 13 13 13 13 12 12 12 12 12 12 11 11 11 11 11 11 10 11 10 10 10 10 10 10 10 10 10 10 10 9 9 9 9 9 10 10 9 9 9 9
13 13 13 12 12 12 12 12 12 12 12 12 11 11 11 11 11 10 10 10 10 10 10 10 10 10 10 10 9 9 9 9 9 9 9 9 9 9 9 9 9 9 9
12 12 12 12 12 12 12 12 12 11 11 11 11 11 11 10 10 10 10 10 10 10 10 10 9 9 9 9 9 9 9 9 9 9 9 9 9 9 9 8 8 8 8
12 12 12 12 12 12 12 11 11 11 11 11 11 10 10 10 10 10 10 9 9 9 9 9 9 9 9 8 8 8 8 8 8 8 8 8 8 8 8 8 8 8 8
12 12 11 11 11 11 11 11 11 11 11 10 10 10 10 9 9 9 9 9 9 9 8 8 8 9 8 8 8 8 8 8 8 8 8 8 8 8 8 8 8 8 8
11 11 11 11 11 11 10 10 10 10 10 10 10 10 9 9 9 9 9 9 8 8 8 8 8 8 8 8 8 8 8 7 7 7 7 7 7 7 7 7 7 7 7
11 11 11 11 11 10 10 10 10 10 10 10 9 9 9 9 8 8 8 8 8 8 8 8 8 8 7 7 7 7 7 7 7 7 7 7 7 7 7 7 7 7 7
11 11 11 11 11 10 10 10 10 9 9 9 9 9 9 8 8 8 8 8 8 8 8 7 7 7 7 7 7 7 7 7 7 7 6 6 6 6 6 6 6 7 7
11 11 11 11 10 10 10 10 9 9 9 9 9 8 8 8 8 8 8 8 8 8 7 7 7 7 7 7 7 7 7 7 7 6 6 6 6 6 6 6 6 6 6
Wind_Speed
4 3 3 3 2 2 2 2 1 2 2 2 2 2 3 3 3 3 4 3 4 3 4 4 5 5 5 5 4 4 5 5 6 6 4 3 3 5 3 5 8 8 8
4 4 4 3 3 2 2 2 2 2 2 2 2 3 3 3 3 4 5 4 4 4 4 4 5 4 5 6 5 5 5 5 6 7 6 5 4 4 4 6 6 6 6
5 5 4 3 3 2 2 2 2 2 2 2 2 3 3 3 4 4 5 5 5 5 5 5 5 5 6 5 6 6 6 6 6 7 7 4 5 4 5 6 6 5 7
4 4 4 3 3 3 2 2 2 2 2 2 2 3 3 4 4 5 5 5 5 6 5 6 6 5 6 6 6 6 6 7 6 7 7 6 5 5 5 5 5 5 7
4 4 3 3 3 2 2 2 2 3 2 2 3 3 4 4 4 5 6 6 6 6 6 6 6 4 5 6 7 6 6 6 7 7 7 7 6 5 5 6 6 6 6
2 2 2 2 2 2 2 2 2 3 3 3 3 3 4 3 4 5 7 6 6 6 6 6 6 5 6 7 8 9 8 8 8 7 7 7 7 7 6 6 7 6 6
2 1 1 1 2 2 2 2 2 3 3 3 3 4 4 3 3 4 6 7 6 6 6 6 6 6 6 7 8 10 10 11 10 9 10 9 8 7 7 8 7 7 8
1 0 1 1 1 2 2 2 3 3 3 4 4 4 4 3 3 5 7 7 6 6 5 5 6 7 7 8 9 8 8 8 8 9 9 9 8 7 7 8 8 8 9
0 1 1 2 2 2 3 3 3 4 4 4 4 4 5 4 3 4 7 6 6 6 6 5 6 7 6 7 8 8 9 8 8 9 9 9 7 7 7 7 7 7 8
1 1 2 2 2 3 3 4 4 4 5 5 4 4 5 5 2 3 6 6 6 6 6 6 3 5 6 5 7 8 9 9 9 7 7 9 9 8 8 8 8 7 7
1 1 1 2 2 3 3 4 4 4 4 5 5 5 5 4 3 2 4 5 6 7 6 6 5 3 5 5 7 7 9 10 9 7 6 6 5 5 6 6 6 7 7
1 2 3 3 3 2 3 3 4 4 4 4 5 5 4 3 3 2 4 6 7 7 6 6 5 4 5 6 5 7 8 8 7 6 5 5 5 5 5 5 5 6 6
2 3 3 3 3 3 3 4 4 4 4 4 4 5 5 4 3 2 4 6 8 6 6 6 7 7 7 6 6 7 6 5 5 5 5 5 5 5 5 4 4 4 6
2 3 3 3 3 3 3 4 4 4 4 5 5 5 4 4 5 5 5 5 5 6 7 6 8 8 7 6 5 5 3 4 5 5 6 5 5 4 4 4 4 4 4
3 3 3 3 3 3 3 3 3 3 3 4 5 5 5 5 5 6 6 6 6 7 7 6 5 5 4 4 4 3 3 3 4 5 5 5 5 4 4 4 4 4 4
3 3 3 2 2 3 3 2 1 2 2 3 4 5 4 5 7 7 7 8 8 8 6 5 4 4 5 5 5 4 3 3 4 5 5 5 5 5 5 4 4 4 4
3 3 3 3 3 3 3 3 3 3 5 6 6 5 5 7 7 8 9 9 8 6 3 4 5 5 5 5 5 5 4 4 4 5 5 5 5 5 5 5 4 4 5
4 3 3 3 3 3 3 4 4 5 4 4 4 5 5 6 7 8 8 7 4 3 4 4 5 5 4 5 5 5 5 4 4 4 5 5 5 5 5 5 5 5 5
3 2 2 2 3 3 3 4 4 5 5 5 5 2 2 5 7 7 6 4 5 5 5 5 5 5 5 5 5 5 5 4 5 5 5 5 5 5 5 5 5 4 5
2 1 2 3 3 3 3 4 4 4 5 5 5 5 5 5 5 4 3 4 5 5 5 5 5 5 5 5 5 5 5 5 5 5 5 5 5 5 5 5 5 4 4
1 1 3 3 3 3 3 4 4 4 5 5 5 4 4 6 6 6 5 5 5 5 5 6 5 5 5 5 5 5 6 5 5 5 5 5 5 4 4 4 4 4 4
2 2 2 2 2 3 3 3 4 5 5 5 5 4 2 4 5 6 5 5 5 5 5 6 6 5 5 5 5 5 5 5 5 5 5 4 4 4 4 4 4 4 4
2 2 1 1 2 2 3 4 4 4 5 5 5 5 4 5 5 5 5 5 5 5 5 5 6 5 5 4 4 4 5 5 5 5 5 4 4 4 4 4 4 5 4
2 2 2 2 2 3 3 4 4 4 4 5 5 5 5 5 5 5 5 4 4 5 5 5 5 6 6 5 5 4 5 6 6 5 5 5 5 4 4 4 4 4 3
2 2 2 2 3 3 3 4 4 4 4 5 5 5 5 5 5 5 4 4 5 5 5 5 5 5 6 6 5 5 6 7 7 6 5 4 4 4 4 4 3 3 2
2 2 2 2 2 3 3 4 4 4 4 5 5 5 5 5 5 4 4 5 5 5 5 4 5 5 6 5 5 6 5 5 6 7 6 3 3 3 3 3 3 2 2
Wind_Direction
195 195 203 205 209 213 222 236 250 275 288 290 295 302 306 309 310 305 305 307 294 292 291 288 286 293 292 288 282 278 274 273 278 285 284 280 272 283 280 261 248 238 223
191 194 199 206 209 212 214 229 241 255 264 275 288 292 293 300 301 297 297 297 292 293 292 292 290 286 283 285 288 283 280 275 273 283 284 277 264 265 272 270 261 246 247
191 195 195 199 205 218 226 232 238 246 262 278 287 293 297 300 298 296 294 289 286 285 286 286 288 289 284 285 282 282 279 273 267 271 273 277 271 266 267 264 267 262 256
193 194 197 205 217 230 237 242 241 245 261 279 285 288 289 290 296 296 295 293 290 286 285 284 284 286 287 286 276 275 278 278 270 266 269 269 265 263 265 269 269 256 255
194 198 202 207 217 231 239 248 253 254 259 272 283 289 290 285 304 307 297 289 287 286 284 282 279 279 295 288 289 290 283 276 273 270 270 270 268 270 268 269 272 272 258
180 192 208 214 219 228 241 247 254 259 269 273 280 286 292 308 343 325 300 291 286 285 287 286 281 268 268 260 267 276 281 277 280 280 277 278 280 276 279 278 277 280 279
158 208 269 249 249 261 267 263 259 258 262 267 275 279 285 306 335 313 297 287 286 288 288 289 293 296 293 287 268 251 253 249 256 269 278 280 280 283 284 277 279 281 281
149 219 273 279 283 271 266 270 271 268 266 268 274 281 282 298 320 302 296 276 285 288 286 288 291 297 300 298 288 284 276 263 250 252 268 275 279 285 279 277 275 271 269
72 330 304 303 302 297 291 283 279 273 269 267 266 270 277 288 308 296 295 282 283 284 283 282 286 292 307 304 288 287 286 280 255 243 255 266 283 278 273 278 276 271 273
4 332 312 301 293 292 296 292 286 276 273 275 279 277 277 286 305 289 290 285 289 288 283 278 272 282 300 297 285 288 290 292 292 274 253 253 256 249 235 250 265 269 275
326 319 305 297 281 281 287 291 295 291 292 289 288 283 282 290 287 269 277 284 292 290 291 289 297 282 278 279 278 285 293 299 293 285 270 265 263 263 256 252 262 272 276
265 289 294 297 296 297 291 293 295 292 284 282 285 290 293 293 306 287 250 263 289 292 292 296 305 298 272 269 273 286 293 296 293 291 286 282 281 281 280 276 275 278 281
240 253 275 291 295 297 287 286 285 283 290 298 301 304 310 322 321 256 244 255 264 277 290 298 299 283 269 260 251 259 272 285 292 296 297 293 291 292 288 279 272 270 274
246 257 263 276 288 293 294 298 298 306 308 311 315 311 313 318 325 328 314 296 275 274 287 281 254 247 250 266 272 262 269 289 290 291 292 295 295 291 286 288 287 284 284
252 260 267 280 296 297 303 313 305 318 316 309 312 313 317 317 331 325 308 307 305 306 302 296 295 293 288 284 282 286 288 286 285 290 293 296 298 299 298 297 294 292 289
258 262 269 281 290 290 296 296 319 259 226 239 268 293 310 322 320 312 303 298 298 294 291 294 298 294 291 290 284 283 281 284 288 291 292 293 294 294 297 298 294 290 291
263 265 273 282 283 287 292 295 296 254 222 225 230 243 267 293 301 301 295 289 281 274 279 297 304 301 294 291 289 290 292 290 288 284 287 290 294 295 295 296 295 293 292
263 256 259 273 283 289 292 296 298 302 304 299 240 210 237 265 279 287 289 292 297 289 302 302 303 303 304 306 304 300 296 297 291 288 289 289 291 292 291 292 293 295 294
270 269 268 278 281 286 291 293 298 304 307 311 317 300 244 268 257 260 265 297 310 311 313 313 314 314 314 315 315 311 301 292 291 287 286 288 288 286 286 287 286 284 285
263 311 292 280 284 291 294 300 308 313 310 311 314 325 328 318 314 316 300 304 305 310 311 311 311 311 312 312 311 309 303 299 296 292 293 291 288 287 285 286 289 290 286
241 219 224 259 277 291 295 299 305 304 307 310 312 326 326 313 317 319 314 313 311 310 309 308 305 305 306 309 311 311 307 305 302 299 296 295 291 286 286 291 292 291 294
241 246 250 275 296 306 309 306 302 301 307 309 312 319 284 297 315 317 319 322 322 317 313 312 310 312 316 318 315 312 310 312 313 309 303 297 296 294 291 289 291 293 291
245 251 266 288 302 304 296 304 307 312 314 311 310 314 319 319 319 320 322 327 327 323 321 320 317 321 331 329 326 323 323 325 324 320 311 300 296 295 295 294 287 283 281
248 258 268 275 286 292 298 307 313 318 314 310 311 312 315 319 319 323 323 326 328 326 328 330 328 329 333 335 334 337 350 344 331 318 310 302 299 299 298 296 294 300 294
264 267 273 275 283 292 300 307 314 321 319 313 310 312 316 318 319 323 325 325 324 325 330 331 329 330 329 328 333 341 355 346 329 319 304 294 296 298 296 293 294 296 287
274 275 280 282 288 295 298 301 306 313 312 311 311 312 311 312 317 328 332 331 328 328 328 330 332 332 328 325 335 344 349 336 323 313 299 292 295 304 304 297 300 299 297
Height
1522 1522 1523 1523 1523 1523 1523 1522 1522 1521 1520 1519 1519 1518 1517 1516 1515 1514 1513 1511 1510 1510 1509 1508 1507 1506 1505 1505 1504 1503 1502 1501 1499 1498 1498 1496 1494 1494 1493 1492 1492 1491 1491
1520 1521 1521 1522 1522 1522 1521 1521 1520 1519 1518 1517 1517 1516 1515 1514 1513 1512 1511 1510 1509 1508 1507 1506 1505 1504 1502 1502 1501 1501 1500 1499 1498 1496 1495 1493 1492 1490 1489 1488 1489 1488 1488
1519 1519 1519 1520 1520 1520 1519 1519 1518 1517 1516 1516 1515 1514 1513 1512 1511 1510 1509 1508 1507 1506 1504 1503 1502 1501 1500 1500 1498 1498 1497 1496 1495 1494 1492 1491 1489 1488 1486 1486 1485 1484 1484
1517 1517 1517 1517 1517 1517 1517 1517 1516 1515 1514 1514 1513 1512 1510 1510 1509 1507 1506 1505 1504 1503 1502 1500 1500 1499 1497 1496 1495 1494 1493 1492 1491 1490 1489 1488 1487 1485 1484 1483 1482 1481 1480
1515 1515 1515 1515 1515 1515 1515 1514 1514 1513 1513 1511 1511 1509 1508 1508 1506 1505 1503 1503 1501 1500 1499 1497 1496 1495 1494 1493 1492 1491 1490 1489 1488 1487 1486 1485 1484 1483 1482 1481 1480 1478 1477
1513 1513 1513 1513 1513 1512 1512 1512 1511 1511 1510 1509 1508 1507 1506 1505 1503 1502 1501 1500 1498 1497 1496 1495 1494 1492 1490 1489 1488 1487 1486 1485 1484 1483 1482 1481 1480 1480 1478 1477 1477 1475 1474
1511 1511 1511 1511 1511 1510 1510 1510 1509 1508 1508 1507 1506 1505 1503 1502 1500 1499 1498 1497 1496 1494 1493 1491 1491 1489 1487 1486 1484 1483 1482 1480 1480 1479 1478 1477 1476 1476 1474 1473 1472 1472 1471
1509 1509 1509 1508 1508 1508 1508 1507 1506 1506 1505 1504 1503 1502 1501 1499 1498 1496 1495 1494 1492 1491 1489 1488 1486 1485 1483 1481 1480 1479 1477 1476 1475 1474 1473 1473 1472 1471 1470 1470 1468 1467 1466
1509 1509 1508 1507 1507 1506 1505 1505 1504 1504 1503 1502 1500 1499 1498 1497 1495 1494 1492 1491 1489 1488 1486 1484 1483 1481 1479 1478 1476 1474 1473 1472 1471 1470 1469 1468 1467 1466 1466 1465 1465 1464 1463
1508 1507 1507 1506 1505 1504 1503 1502 1502 1501 1500 1499 1498 1496 1495 1494 1492 1490 1489 1488 1486 1485 1483 1481 1479 1477 1476 1474 1472 1471 1469 1468 1467 1466 1464 1463 1463 1462 1461 1461 1461 1460 1459
1505 1505 1505 1504 1503 1502 1501 1499 1498 1498 1497 1496 1495 1494 1492 1490 1489 1487 1485 1484 1483 1481 1480 1478 1476 1474 1472 1470 1468 1467 1465 1464 1463 1462 1461 1460 1459 1458 1458 1457 1456 1456 1455
1503 1503 1502 1501 1501 1500 1498 1497 1496 1495 1494 1493 1492 1491 1489 1487 1485 1483 1482 1480 1478 1477 1476 1474 1473 1470 1468 1466 1465 1463 1462 1460 1459 1458 1457 1456 1455 1454 1454 1453 1452 1451 1451
1500 1500 1499 1499 1498 1497 1496 1494 1493 1493 1492 1491 1490 1489 1487 1485 1482 1480 1478 1476 1474 1473 1471 1469 1468 1466 1464 1463 1461 1459 1458 1457 1456 1455 1454 1453 1452 1451 1450 1449 1447 1446 1446
1497 1497 1497 1496 1495 1494 1493 1492 1491 1491 1490 1489 1488 1486 1485 1482 1479 1477 1475 1473 1472 1470 1468 1465 1463 1462 1460 1459 1458 1456 1455 1454 1453 1452 1451 1450 1449 1448 1446 1445 1445 1443 1443
1494 1494 1494 1494 1493 1492 1491 1489 1488 1487 1487 1486 1485 1484 1482 1480 1477 1475 1473 1470 1468 1466 1464 1462 1460 1459 1458 1456 1455 1453 1452 1451 1450 1449 1448 1447 1446 1444 1443 1442 1441 1440 1439
1492 1492 1492 1492 1491 1490 1488 1487 1485 1485 1484 1482 1481 1480 1478 1477 1474 1472 1469 1467 1465 1462 1460 1459 1457 1456 1455 1453 1452 1450 1449 1448 1447 1446 1444 1444 1442 1441 1440 1439 1438 1437 1436
1489 1489 1489 1489 1488 1487 1486 1485 1484 1483 1481 1479 1478 1476 1475 1473 1471 1468 1465 1463 1461 1459 1458 1456 1455 1453 1452 1450 1449 1447 1446 1445 1443 1442 1441 1440 1439 1438 1437 1436 1435 1434 1433
1487 1486 1486 1486 1486 1485 1484 1483 1482 1480 1479 1477 1476 1473 1471 1469 1467 1464 1462 1460 1458 1457 1456 1454 1452 1450 1449 1447 1445 1444 1443 1442 1440 1439 1438 1437 1436 1435 1434 1433 1432 1431 1430
1485 1484 1483 1483 1483 1483 1482 1481 1479 1478 1477 1475 1473 1471 1468 1466 1464 1462 1459 1458 1456 1455 1453 1452 1450 1448 1446 1444 1442 1441 1440 1438 1437 1436 1435 1434 1433 1432 1431 1430 1429 1428 1427
1482 1481 1481 1481 1481 1480 1479 1478 1477 1476 1474 1473 1471 1469 1466 1464 1461 1459 1458 1456 1454 1453 1451 1449 1448 1446 1443 1441 1440 1438 1437 1435 1434 1433 1432 1431 1430 1429 1428 1426 1426 1425 1424
1479 1478 1477 1477 1477 1477 1476 1475 1474 1473 1472 1470 1469 1466 1463 1462 1460 1457 1455 1454 1452 1450 1448 1447 1445 1443 1441 1439 1437 1436 1434 1432 1431 1429 1428 1427 1426 1425 1424 1423 1423 1422 1421
1477 1476 1476 1476 1475 1474 1473 1473 1472 1470 1469 1468 1466 1464 1461 1459 1458 1455 1453 1451 1449 1448 1446 1444 1443 1441 1439 1437 1435 1433 1431 1429 1427 1426 1425 1424 1423 1422 1421 1420 1419 1419 1418
1475 1475 1474 1474 1473 1472 1471 1470 1469 1468 1466 1465 1463 1461 1459 1457 1455 1453 1451 1449 1447 1446 1444 1442 1440 1439 1436 1434 1432 1430 1428 1426 1424 1423 1421 1420 1419 1419 1418 1417 1417 1416 1416
1474 1473 1473 1472 1471 1470 1469 1468 1467 1465 1464 1462 1461 1459 1457 1455 1453 1451 1449 1447 1445 1444 1442 1440 1438 1436 1434 1432 1430 1428 1425 1423 1421 1420 1418 1417 1417 1416 1415 1415 1414 1414 1414
1472 1472 1471 1470 1469 1468 1467 1466 1465 1463 1461 1460 1459 1457 1455 1453 1451 1449 1447 1445 1443 1441 1439 1438 1436 1433 1431 1429 1427 1425 1423 1420 1418 1417 1415 1415 1414 1414 1413 1413 1413 1412 1412
1470 1470 1469 1468 1467 1466 1465 1464 1462 1461 1459 1458 1457 1455 1453 1451 1450 1448 1445 1443 1441 1439 1437 1435 1433 1431 1428 1426 1424 1422 1420 1418 1416 1415 1413 1413 1412 1412 1412 1411 1411 1411 1410